DECAYED
Showing default

MDASAT-1A, 50995 (Decayed)

Orbit data source: Space-Track

MDASAT-1A, 50995 was a payload satellite owned by CPUT (ZA) in LEO that was launched on Thu, 13 Jan 2022 UTC via an FALCON 9 launch vehicle from the Air Force Eastern Test Range (AFETR). Payload-class satellites include a variety of spacecraft equipped with specific instruments for various scientific and technological missions. These include communications satellites like Starlink; space stations such as the ISS; scientific satellites like the Hubble; Earth observation satellites from companies like Planet Labs, Umbra, and HawkEye 360; GPS; miniature CubeSats for education and research; and military/defense satellites.

Not visible in the next 10 days
Identifier
50995, 2022-002M
Orbit
Decayed
Country
Flag of UnknownUnknown / SAFR
Related business
Manufacturer
CPUT
Mission
Decayed Amateur Communications
Bus & Motor
CUBESAT 2U, Unknown motor
Mass
3 kg wet, 3 kg dry
Launch date (UTC)
2022-01-13 (4 years ago)
Launch vehicle
FALCON 9
Launch site
Air Force Eastern Test Range (AFETR)
Object type
Payload
Rocket body
Debris
Shape & HBR
Box, 0.1 m
Radar Cross Section
0.025 m², Small (<0.1 m²)

Expand to show TLE details & history
Last TLE update: 5 months ago

TLE from 5 months ago
0 MDASAT-1A
1 50995U 22002M   25126.58679728  .06929084  24731-5  92854-3 0  9993
2 50995  97.3193 208.2305 0012290 264.4576  95.5320 16.35250920184662
Epoch: 2025-05-06T14:04Z
TLE epoch observation values (Epoch: 2025-05-06T14:04:59.284Z)
Latitude
-0°
Longitude
132.29962°
Altitude
182.5 km
Speed
7.796 km/s
True Right ascension
13h 52m 55s
True Declination
0° 00' 00"
Sunlit
Object was in full shadow at epoch
Visualization orbit readout
Latitude
Unknown
Longitude
Unknown
Altitude
Unknown
Speed
Unknown
Apparent Right ascension
Unknown
Apparent Declination
Unknown
Sunlit
N/A
Visualization observer readout
Local Sidereal Time
15:25:39
Azimuth
Unknown
Elevation
Unknown
Doppler factor
Unknown
Orbital elements
Apogee altitude
183.331 km
Perigee altitude
167.222 km
Semi-major axis
6,553.413 km
Eccentricity
0.00123
Inclination
97.3193°
RAAN
208.2305°
Arg. of periapsis
264.4576°
True anomaly
95.67216°
Mean anomaly
95.532°
Eccentric anomaly
95.60208°
Mean motion
4.09112 °/min
Orbital period
88 mins
BSTAR
0.00092854
Loading maneuver chart data...
Computing Atmospheric mass density...

Documentation

Showing up to 5 results
|